Location: Rio Tanui
(39.9167°N, 8.5167°E)
Time: 02:11:35
(UTC+00:00)

Cosmos 2278 Rocket - Pass Details

Date: 08 February 2023
Orbit: 841 x 845 km, 71.0° (Epoch: 01 April)

Event Time Altitude Azimuth Distance (km) Brightness Sun altitude
Rises 18:44:41 0° 340° (NNW) 3,411 5.6 -21.8°
Reaches altitude 10° 18:47:12 10° 344° (NNW) 2,472 4.8 -22.3°
Maximum altitude 18:52:48 59° 64° (ENE) 969 2.2 -23.3°
Enters shadow 18:53:25 56° 92° (E) 1,000 2.2 -23.5°
